| time (UTC) | temp C | wind direction | speed KPH | gust KPH | rain 1hr cm | rain 24hr cm | rain mn cm | humidity % | barometer mb |
| 20260502152007 | 9 | 54 | 3.2 | 12.9 | 0.00 | 0.00 | 0.00 | 50 | 1016.6 |
| 20260502151500 | 8 | 34 | 3.2 | 12.9 | 0.00 | 0.00 | 0.00 | 48 | 1016.6 |
| 20260502151216 | 8 | 39 | 3.2 | 8.0 | 0.00 | 0.00 | 0.00 | 49 | 1016.6 |
| 20260502150449 | 8 | 54 | 3.2 | 8.0 | 0.00 | 0.00 | 0.00 | 51 | 1016.6 |
| 20260502130728 | 5 | 342 | 1.6 | 4.8 | 0.00 | 0.00 | 0.00 | 63 | 1016.3 |
| 20260502130214 | 5 | 329 | 1.6 | 4.8 | 0.00 | 0.00 | 0.00 | 65 | 1016.2 |
| 20260502123716 | 3 | 125 | 0.0 | 3.2 | 0.00 | 0.00 | 0.00 | 73 | 1016.2 |
| 20260502123214 | 3 | 125 | 0.0 | 3.2 | 0.00 | 0.00 | 0.00 | 75 | 1016.2 |
| 20260502122715 | 2 | 126 | 0.0 | 3.2 | 0.00 | 0.00 | 0.00 | 77 | 1016.2 |
| 20260502122216 | 2 | 65 | 0.0 | 1.6 | 0.00 | 0.00 | 0.00 | 79 | 1016.2 |
| 20260502121708 | 2 | 65 | 0.0 | 3.2 | 0.00 | 0.00 | 0.00 | 80 | 1016.2 |
| 20260502121200 | 2 | 65 | 0.0 | 3.2 | 0.00 | 0.00 | 0.00 | 81 | 1016.2 |
| 20260502120650 | 1 | 65 | 0.0 | 0.0 | 0.00 | 0.00 | 0.00 | 83 | 1016.2 |
| 20260502120150 | 1 | 65 | 0.0 | 0.0 | 0.00 | 0.00 | 0.00 | 84 | 1016.0 |
| 20260502115644 | 1 | 65 | 0.0 | 0.0 | 0.00 | 0.00 | 0.00 | 85 | 1016.0 |
| 20260502115136 | 1 | 65 | 0.0 | 0.0 | 0.00 | 0.00 | 0.00 | 86 | 1016.0 |
| 20260502114632 | 0 | 65 | 0.0 | 0.0 | 0.00 | 0.00 | 0.00 | 87 | 1015.7 |
| 20260502114121 | 0 | 65 | 0.0 | 0.0 | 0.00 | 0.00 | 0.00 | 86 | 1015.7 |
| 20260502113618 | 0 | 65 | 0.0 | 0.0 | 0.00 | 0.00 | 0.00 | 86 | 1015.7 |
| 20260502113112 | 0 | 80 | 0.0 | 0.0 | 0.00 | 0.00 | 0.00 | 86 | 1015.6 |
| 20260502112606 | 0 | 82 | 0.0 | 0.0 | 0.00 | 0.00 | 0.00 | 86 | 1015.6 |
| 20260502112101 | 0 | 84 | 0.0 | 0.0 | 0.00 | 0.00 | 0.00 | 86 | 1015.6 |
| 20260502111551 | 0 | 66 | 0.0 | 0.0 | 0.00 | 0.00 | 0.00 | 85 | 1015.6 |
| 20260502111049 | 0 | 71 | 0.0 | 0.0 | 0.00 | 0.00 | 0.00 | 85 | 1015.6 |
| 20260502110543 | 0 | 71 | 0.0 | 0.0 | 0.00 | 0.00 | 0.00 | 85 | 1015.6 |
| 20260502110036 | 0 | 73 | 0.0 | 0.0 | 0.00 | 0.00 | 0.00 | 85 | 1015.6 |
| 20260502105530 | 0 | 73 | 0.0 | 0.0 | 0.00 | 0.00 | 0.00 | 84 | 1015.6 |
| 20260502105021 | 0 | 73 | 0.0 | 0.0 | 0.00 | 0.00 | 0.00 | 84 | 1015.6 |
| 20260502104518 | 0 | 74 | 0.0 | 0.0 | 0.00 | 0.00 | 0.00 | 85 | 1015.5 |
| 20260502104014 | 0 | 73 | 0.0 | 0.0 | 0.00 | 0.00 | 0.00 | 84 | 1015.5 |
| 20260502103727 | 0 | 73 | 0.0 | 0.0 | 0.00 | 0.00 | 0.00 | 84 | 1015.5 |
| 20260502103001 | 0 | 73 | 0.0 | 0.0 | 0.00 | 0.00 | 0.00 | 84 | 1015.5 |
| 20260502102453 | 0 | 73 | 0.0 | 0.0 | 0.00 | 0.00 | 0.00 | 84 | 1015.5 |
| 20260502101948 | 0 | 74 | 0.0 | 0.0 | 0.00 | 0.00 | 0.00 | 84 | 1015.5 |
| 20260502101438 | 0 | 74 | 0.0 | 0.0 | 0.00 | 0.00 | 0.00 | 84 | 1015.5 |
| 20260502101157 | 0 | 74 | 0.0 | 0.0 | 0.00 | 0.00 | 0.00 | 84 | 1015.5 |
| 20260502100431 | 0 | 75 | 0.0 | 0.0 | 0.00 | 0.00 | 0.00 | 84 | 1015.5 |
| 20260502091331 | 0 | 69 | 0.0 | 0.0 | 0.00 | 0.00 | 0.00 | 84 | 1015.2 |
| 20260502090824 | 0 | 69 | 0.0 | 0.0 | 0.00 | 0.00 | 0.00 | 84 | 1015.2 |
| 20260502090319 | 0 | 69 | 0.0 | 0.0 | 0.00 | 0.00 | 0.00 | 83 | 1015.3 |
| 20260502071415 | 1 | 67 | 0.0 | 3.2 | 0.00 | 0.00 | 0.00 | 81 | 1015.5 |
| 20260502070641 | 1 | 67 | 0.0 | 1.6 | 0.00 | 0.00 | 0.00 | 81 | 1015.5 |
| 20260502070402 | 1 | 67 | 0.0 | 0.0 | 0.00 | 0.00 | 0.00 | 81 | 1015.6 |
| 20260502065627 | 1 | 67 | 0.0 | 0.0 | 0.00 | 0.00 | 0.00 | 80 | 1015.6 |
| 20260502065123 | 1 | 67 | 0.0 | 0.0 | 0.00 | 0.00 | 0.00 | 80 | 1015.6 |
| 20260502064619 | 1 | 67 | 0.0 | 0.0 | 0.00 | 0.00 | 0.00 | 80 | 1015.7 |
| 20260502064111 | 1 | 67 | 0.0 | 0.0 | 0.00 | 0.00 | 0.00 | 80 | 1015.7 |
| 20260502063607 | 1 | 67 | 0.0 | 0.0 | 0.00 | 0.00 | 0.00 | 79 | 1015.7 |
| 20260502063056 | 1 | 66 | 0.0 | 0.0 | 0.00 | 0.00 | 0.00 | 79 | 1015.7 |
| 20260502062554 | 1 | 66 | 0.0 | 0.0 | 0.00 | 0.00 | 0.00 | 79 | 1015.7 |
| 20260502062049 | 1 | 66 | 0.0 | 0.0 | 0.00 | 0.00 | 0.00 | 79 | 1015.7 |
| 20260502061807 | 1 | 66 | 0.0 | 0.0 | 0.00 | 0.00 | 0.00 | 79 | 1015.8 |
| 20260502061035 | 1 | 66 | 0.0 | 0.0 | 0.00 | 0.00 | 0.00 | 79 | 1015.8 |
| 20260502060530 | 1 | 67 | 0.0 | 0.0 | 0.00 | 0.00 | 0.00 | 79 | 1015.8 |
| 20260502060028 | 1 | 67 | 0.0 | 0.0 | 0.00 | 0.00 | 0.00 | 79 | 1015.9 |
| 20260502055518 | 1 | 66 | 0.0 | 0.0 | 0.00 | 0.00 | 0.00 | 79 | 1015.9 |
| 20260502055050 | 2 | 67 | 0.0 | 0.0 | 0.00 | 0.00 | 0.00 | 79 | 1015.9 |
| 20260502053959 | 2 | 66 | 0.0 | 0.0 | 0.00 | 0.00 | 0.00 | 78 | 1016.0 |
| 20260502053454 | 2 | 66 | 0.0 | 0.0 | 0.00 | 0.00 | 0.00 | 77 | 1016.0 |
| 20260502052942 | 2 | 66 | 0.0 | 0.0 | 0.00 | 0.00 | 0.00 | 77 | 1015.9 |
| 20260502052441 | 2 | 65 | 0.0 | 0.0 | 0.00 | 0.00 | 0.00 | 77 | 1015.9 |
| 20260502051936 | 2 | 65 | 0.0 | 0.0 | 0.00 | 0.00 | 0.00 | 77 | 1016.0 |
| 20260502051651 | 2 | 65 | 0.0 | 0.0 | 0.00 | 0.00 | 0.00 | 77 | 1016.0 |
| 20260502050924 | 2 | 65 | 0.0 | 1.6 | 0.00 | 0.00 | 0.00 | 76 | 1016.0 |
| 20260502050419 | 2 | 65 | 0.0 | 1.6 | 0.00 | 0.00 | 0.00 | 76 | 1016.0 |
| 20260502045914 | 2 | 65 | 0.0 | 3.2 | 0.00 | 0.00 | 0.00 | 76 | 1016.0 |
| 20260502045408 | 3 | 65 | 0.0 | 4.8 | 0.00 | 0.00 | 0.00 | 76 | 1016.0 |
| 20260502045124 | 3 | 66 | 1.6 | 4.8 | 0.00 | 0.00 | 0.00 | 76 | 1015.9 |
| 20260502044401 | 3 | 59 | 1.6 | 8.0 | 0.00 | 0.00 | 0.00 | 76 | 1015.9 |
| 20260502043901 | 3 | 58 | 1.6 | 8.0 | 0.00 | 0.00 | 0.00 | 75 | 1015.9 |
| 20260502043400 | 3 | 55 | 1.6 | 8.0 | 0.00 | 0.00 | 0.00 | 76 | 1015.9 |
| 20260502042900 | 3 | 26 | 1.6 | 8.0 | 0.00 | 0.00 | 0.00 | 76 | 1015.9 |
| 20260502042402 | 3 | 49 | 1.6 | 6.4 | 0.00 | 0.00 | 0.00 | 75 | 1015.9 |
| 20260502041901 | 3 | 51 | 1.6 | 4.8 | 0.00 | 0.00 | 0.00 | 76 | 1016.0 |
| 20260502041401 | 3 | 36 | 1.6 | 4.8 | 0.00 | 0.00 | 0.00 | 76 | 1016.0 |
| 20260502040858 | 3 | 63 | 1.6 | 4.8 | 0.00 | 0.00 | 0.00 | 76 | 1016.0 |
| 20260502040356 | 2 | 63 | 1.6 | 4.8 | 0.00 | 0.00 | 0.00 | 76 | 1015.9 |
| 20260502035854 | 2 | 55 | 1.6 | 4.8 | 0.00 | 0.00 | 0.00 | 76 | 1015.9 |
| 20260502035352 | 2 | 53 | 1.6 | 4.8 | 0.00 | 0.00 | 0.00 | 75 | 1015.9 |
| 20260502034853 | 2 | 56 | 1.6 | 4.8 | 0.00 | 0.00 | 0.00 | 75 | 1015.7 |
| 20260502034353 | 2 | 48 | 1.6 | 4.8 | 0.00 | 0.00 | 0.00 | 76 | 1015.7 |
| 20260502033855 | 2 | 44 | 1.6 | 4.8 | 0.00 | 0.00 | 0.00 | 76 | 1015.7 |
| 20260502033356 | 2 | 59 | 1.6 | 4.8 | 0.00 | 0.00 | 0.00 | 76 | 1015.7 |
| 20260502032851 | 2 | 53 | 1.6 | 4.8 | 0.00 | 0.00 | 0.00 | 75 | 1015.7 |
| 20260502032338 | 2 | 62 | 1.6 | 6.4 | 0.00 | 0.00 | 0.00 | 75 | 1015.7 |
| 20260502031825 | 2 | 55 | 1.6 | 6.4 | 0.00 | 0.00 | 0.00 | 75 | 1015.7 |
| 20260502031315 | 2 | 54 | 1.6 | 4.8 | 0.00 | 0.00 | 0.00 | 75 | 1015.7 |
| 20260502030802 | 3 | 64 | 1.6 | 6.4 | 0.00 | 0.00 | 0.00 | 75 | 1015.7 |
| 20260502030250 | 3 | 49 | 3.2 | 6.4 | 0.00 | 0.00 | 0.00 | 74 | 1015.6 |
| 20260502025739 | 3 | 43 | 3.2 | 6.4 | 0.00 | 0.00 | 0.00 | 74 | 1015.6 |
| 20260502025227 | 3 | 44 | 3.2 | 8.0 | 0.00 | 0.00 | 0.00 | 74 | 1015.6 |
| 20260502024940 | 3 | 57 | 3.2 | 8.0 | 0.00 | 0.00 | 0.00 | 75 | 1015.5 |
| 20260502024205 | 3 | 40 | 3.2 | 8.0 | 0.00 | 0.00 | 0.00 | 75 | 1015.5 |
| 20260502024154 | 3 | 17 | 4.8 | 11.3 | 0.00 | 0.00 | 0.00 | 75 | 1015.5 |
| 20260502023159 | 3 | 55 | 4.8 | 11.3 | 0.00 | 0.00 | 0.00 | 75 | 1015.2 |
| 20260502022652 | 3 | 60 | 4.8 | 11.3 | 0.00 | 0.00 | 0.00 | 75 | 1015.2 |
| 20260502022405 | 3 | 74 | 4.8 | 11.3 | 0.00 | 0.00 | 0.00 | 75 | 1015.2 |
| 20260502021638 | 3 | 53 | 4.8 | 12.9 | 0.00 | 0.00 | 0.00 | 74 | 1015.0 |
| 20260502021359 | 3 | 61 | 4.8 | 12.9 | 0.00 | 0.00 | 0.00 | 74 | 1015.0 |
| 20260502020620 | 3 | 46 | 3.2 | 9.7 | 0.00 | 0.00 | 0.00 | 74 | 1015.0 |
| 20260502020340 | 3 | 40 | 4.8 | 9.7 | 0.00 | 0.00 | 0.00 | 74 | 1014.8 |
| 20260502015615 | 3 | 59 | 6.4 | 14.5 | 0.00 | 0.00 | 0.00 | 74 | 1014.8 |
| 20260502015109 | 3 | 53 | 6.4 | 14.5 | 0.00 | 0.00 | 0.00 | 73 | 1014.8 |
| 20260502014602 | 3 | 63 | 6.4 | 14.5 | 0.00 | 0.00 | 0.00 | 73 | 1014.6 |
| 20260502014052 | 4 | 74 | 6.4 | 14.5 | 0.00 | 0.00 | 0.00 | 73 | 1014.6 |
| 20260502013813 | 4 | 51 | 8.0 | 20.9 | 0.00 | 0.00 | 0.00 | 73 | 1014.6 |
| 20260502013044 | 4 | 65 | 6.4 | 20.9 | 0.00 | 0.00 | 0.00 | 73 | 1014.4 |
| 20260502012539 | 4 | 53 | 6.4 | 14.5 | 0.00 | 0.00 | 0.00 | 72 | 1014.4 |
| 20260502012253 | 4 | 66 | 6.4 | 16.1 | 0.00 | 0.00 | 0.00 | 72 | 1014.4 |
| 20260502011523 | 4 | 26 | 6.4 | 16.1 | 0.00 | 0.00 | 0.00 | 72 | 1014.3 |
| 20260502011020 | 4 | 53 | 4.8 | 14.5 | 0.00 | 0.00 | 0.00 | 72 | 1014.3 |
| 20260502010516 | 5 | 52 | 4.8 | 14.5 | 0.00 | 0.00 | 0.00 | 72 | 1014.3 |
| 20260502010012 | 5 | 65 | 4.8 | 20.9 | 0.00 | 0.00 | 0.00 | 71 | 1014.0 |
| 20260502005733 | 5 | 67 | 6.4 | 20.9 | 0.00 | 0.00 | 0.00 | 71 | 1014.0 |
| 20260502005221 | 5 | 39 | 6.4 | 16.1 | 0.00 | 0.00 | 0.00 | 70 | 1014.0 |
| 20260502004452 | 5 | 62 | 8.0 | 22.5 | 0.00 | 0.00 | 0.00 | 71 | 1013.9 |
| 20260502003942 | 5 | 0 | 8.0 | 22.5 | 0.00 | 0.00 | 0.00 | 71 | 1013.9 |
| 20260502003440 | 5 | 71 | 6.4 | 17.7 | 0.00 | 0.00 | 0.00 | 71 | 1013.7 |
| 20260502002934 | 6 | 66 | 6.4 | 17.7 | 0.00 | 0.00 | 0.00 | 71 | 1013.7 |
| 20260502002427 | 6 | 62 | 6.4 | 17.7 | 0.00 | 0.00 | 0.00 | 70 | 1013.7 |
| 20260502001921 | 6 | 71 | 4.8 | 14.5 | 0.00 | 0.00 | 0.00 | 70 | 1013.5 |
| 20260502001410 | 6 | 28 | 6.4 | 12.9 | 0.00 | 0.00 | 0.00 | 70 | 1013.5 |
| 20260502000908 | 6 | 58 | 6.4 | 16.1 | 0.00 | 0.00 | 0.00 | 70 | 1013.5 |
| 20260502000403 | 6 | 80 | 4.8 | 16.1 | 0.00 | 0.00 | 0.00 | 70 | 1013.6 |
| 20260501235856 | 6 | 55 | 4.8 | 11.3 | 0.00 | 0.00 | 0.00 | 70 | 1013.6 |
| 20260501235351 | 6 | 57 | 4.8 | 12.9 | 0.00 | 0.00 | 0.00 | 70 | 1013.6 |
| 20260501234844 | 6 | 84 | 4.8 | 12.9 | 0.00 | 0.00 | 0.00 | 71 | 1013.6 |
| 20260501234340 | 6 | 65 | 4.8 | 12.9 | 0.00 | 0.00 | 0.00 | 70 | 1013.6 |
| 20260501233913 | 7 | 83 | 3.2 | 12.9 | 0.00 | 0.00 | 0.00 | 70 | 1013.6 |
| 20260501232820 | 7 | 38 | 6.4 | 14.5 | 0.00 | 0.00 | 0.00 | 70 | 1013.7 |
| 20260501232319 | 7 | 42 | 4.8 | 14.5 | 0.00 | 0.00 | 0.00 | 69 | 1013.7 |
| 20260501232036 | 7 | 37 | 4.8 | 11.3 | 0.00 | 0.00 | 0.00 | 69 | 1013.6 |
| 20260501231320 | 7 | 69 | 4.8 | 12.9 | 0.00 | 0.00 | 0.00 | 68 | 1013.6 |
| 20260501230821 | 7 | 73 | 6.4 | 14.5 | 0.00 | 0.00 | 0.00 | 68 | 1013.6 |
| 20260501230320 | 7 | 26 | 6.4 | 14.5 | 0.00 | 0.00 | 0.00 | 67 | 1013.8 |
| 20260501225820 | 7 | 40 | 6.4 | 14.5 | 0.00 | 0.00 | 0.00 | 68 | 1013.8 |
| 20260501225323 | 8 | 62 | 6.4 | 14.5 | 0.00 | 0.00 | 0.00 | 67 | 1013.8 |
| 20260501224823 | 8 | 39 | 4.8 | 12.9 | 0.00 | 0.00 | 0.00 | 67 | 1013.7 |
| 20260501224316 | 8 | 68 | 3.2 | 8.0 | 0.00 | 0.00 | 0.00 | 68 | 1013.7 |
| 20260501223804 | 7 | 105 | 4.8 | 14.5 | 0.00 | 0.00 | 0.00 | 68 | 1013.7 |
| 20260501223253 | 7 | 69 | 4.8 | 14.5 | 0.00 | 0.00 | 0.00 | 67 | 1013.8 |
| 20260501222752 | 7 | 74 | 3.2 | 12.9 | 0.00 | 0.00 | 0.00 | 67 | 1013.8 |
| 20260501222240 | 8 | 66 | 3.2 | 9.7 | 0.00 | 0.00 | 0.00 | 66 | 1013.8 |
| 20260501221959 | 8 | 37 | 4.8 | 12.9 | 0.00 | 0.00 | 0.00 | 67 | 1013.7 |
| 20260501221233 | 8 | 76 | 3.2 | 12.9 | 0.00 | 0.00 | 0.00 | 66 | 1013.7 |
| 20260501220728 | 8 | 76 | 4.8 | 12.9 | 0.00 | 0.00 | 0.00 | 67 | 1013.7 |
| 20260501220445 | 7 | 61 | 6.4 | 12.9 | 0.00 | 0.00 | 0.00 | 66 | 1013.8 |
| 20260501215714 | 8 | 22 | 6.4 | 12.9 | 0.00 | 0.00 | 0.00 | 66 | 1013.8 |
| 20260501215208 | 8 | 63 | 4.8 | 12.9 | 0.00 | 0.00 | 0.00 | 66 | 1013.8 |
| 20260501214657 | 8 | 74 | 4.8 | 11.3 | 0.00 | 0.00 | 0.00 | 67 | 1013.7 |
| 20260501214156 | 8 | 44 | 4.8 | 11.3 | 0.00 | 0.00 | 0.00 | 66 | 1013.7 |
| 20260501213651 | 8 | 46 | 4.8 | 12.9 | 0.00 | 0.00 | 0.00 | 67 | 1013.7 |
| 20260501213402 | 8 | 5 | 6.4 | 12.9 | 0.00 | 0.00 | 0.00 | 66 | 1013.7 |
| 20260501212639 | 8 | 76 | 4.8 | 12.9 | 0.00 | 0.00 | 0.00 | 66 | 1013.7 |
| 20260501212129 | 8 | 296 | 6.4 | 16.1 | 0.00 | 0.00 | 0.00 | 67 | 1013.7 |
| 20260501211627 | 8 | 39 | 6.4 | 16.1 | 0.00 | 0.00 | 0.00 | 66 | 1013.5 |
| 20260501211121 | 8 | 45 | 3.2 | 14.5 | 0.00 | 0.00 | 0.00 | 69 | 1013.5 |
| 20260501210615 | 8 | 109 | 4.8 | 11.3 | 0.00 | 0.00 | 0.00 | 68 | 1013.5 |
| 20260501210110 | 7 | 55 | 6.4 | 12.9 | 0.00 | 0.00 | 0.00 | 68 | 1013.5 |
| 20260501205603 | 7 | 27 | 6.4 | 16.1 | 0.00 | 0.00 | 0.00 | 69 | 1013.5 |
| 20260501205057 | 7 | 74 | 6.4 | 16.1 | 0.00 | 0.00 | 0.00 | 69 | 1013.5 |
| 20260501204546 | 7 | 63 | 8.0 | 16.1 | 0.00 | 0.00 | 0.00 | 69 | 1013.5 |
| 20260501204045 | 7 | 60 | 8.0 | 17.7 | 0.00 | 0.00 | 0.00 | 69 | 1013.5 |
| 20260501203537 | 7 | 55 | 4.8 | 17.7 | 0.00 | 0.00 | 0.00 | 70 | 1013.5 |
| 20260501203032 | 7 | 49 | 4.8 | 14.5 | 0.00 | 0.00 | 0.00 | 70 | 1013.5 |
| 20260501202751 | 7 | 53 | 4.8 | 16.1 | 0.00 | 0.00 | 0.00 | 70 | 1013.5 |
| 20260501202016 | 7 | 78 | 6.4 | 16.1 | 0.00 | 0.00 | 0.00 | 70 | 1013.5 |
| 20260501201513 | 7 | 88 | 8.0 | 17.7 | 0.00 | 0.00 | 0.00 | 70 | 1013.5 |
| 20260501201230 | 7 | 63 | 8.0 | 17.7 | 0.00 | 0.00 | 0.00 | 69 | 1013.5 |
| 20260501200506 | 8 | 42 | 6.4 | 14.5 | 0.00 | 0.00 | 0.00 | 70 | 1013.5 |
| 20260501200004 | 8 | 88 | 4.8 | 11.3 | 0.00 | 0.00 | 0.00 | 70 | 1013.5 |
| 20260501195505 | 8 | 76 | 6.4 | 16.1 | 0.00 | 0.00 | 0.00 | 70 | 1013.5 |
| 20260501195004 | 8 | 45 | 6.4 | 17.7 | 0.00 | 0.00 | 0.00 | 69 | 1013.5 |
| 20260501194730 | 8 | 58 | 6.4 | 17.7 | 0.00 | 0.00 | 0.00 | 70 | 1013.4 |
| 20260501194005 | 8 | 80 | 4.8 | 14.5 | 0.00 | 0.00 | 0.00 | 71 | 1013.4 |
| 20260501193505 | 8 | 25 | 4.8 | 12.9 | 0.00 | 0.00 | 0.00 | 71 | 1013.4 |
| 20260501193005 | 8 | 65 | 3.2 | 12.9 | 0.00 | 0.00 | 0.00 | 70 | 1013.4 |
| 20260501192505 | 8 | 86 | 3.2 | 12.9 | 0.00 | 0.00 | 0.00 | 71 | 1013.4 |
| 20260501192006 | 8 | 59 | 4.8 | 14.5 | 0.00 | 0.00 | 0.00 | 70 | 1013.4 |
| 20260501191724 | 8 | 52 | 6.4 | 14.5 | 0.00 | 0.00 | 0.00 | 70 | 1013.4 |
| 20260501191002 | 7 | 47 | 6.4 | 14.5 | 0.00 | 0.00 | 0.00 | 70 | 1013.4 |
| 20260501190724 | 7 | 62 | 8.0 | 16.1 | 0.00 | 0.00 | 0.00 | 70 | 1013.4 |
| 20260501190002 | 7 | 57 | 8.0 | 16.1 | 0.00 | 0.00 | 0.00 | 69 | 1013.2 |
| 20260501185718 | 8 | 39 | 4.8 | 16.1 | 0.00 | 0.00 | 0.00 | 70 | 1013.2 |
| 20260501184944 | 7 | 42 | 4.8 | 12.9 | 0.00 | 0.00 | 0.00 | 71 | 1013.1 |
| 20260501184434 | 8 | 51 | 6.4 | 14.5 | 0.00 | 0.00 | 0.00 | 70 | 1013.1 |
| 20260501183922 | 8 | 22 | 6.4 | 16.1 | 0.00 | 0.00 | 0.00 | 69 | 1013.1 |
| 20260501183409 | 8 | 76 | 6.4 | 16.1 | 0.00 | 0.00 | 0.00 | 68 | 1012.9 |
| 20260501182858 | 9 | 54 | 6.4 | 14.5 | 0.00 | 0.00 | 0.00 | 63 | 1012.9 |
| 20260501182345 | 10 | 334 | 4.8 | 14.5 | 0.00 | 0.00 | 0.00 | 54 | 1012.9 |
| 20260501181834 | 9 | 287 | 8.0 | 16.1 | 0.00 | 0.00 | 0.00 | 54 | 1012.8 |
| 20260501181547 | 9 | 281 | 6.4 | 16.1 | 0.00 | 0.00 | 0.00 | 53 | 1012.8 |
| 20260501181038 | 9 | 324 | 4.8 | 16.1 | 0.00 | 0.00 | 0.00 | 55 | 1012.8 |
| 20260501180528 | 9 | 5 | 6.4 | 16.1 | 0.00 | 0.00 | 0.00 | 56 | 1012.9 |
| 20260501175758 | 9 | 342 | 8.0 | 16.1 | 0.00 | 0.00 | 0.00 | 55 | 1012.9 |
| 20260501175252 | 9 | 355 | 8.0 | 17.7 | 0.00 | 0.00 | 0.00 | 55 | 1012.9 |
| 20260501174741 | 9 | 274 | 8.0 | 14.5 | 0.00 | 0.00 | 0.00 | 55 | 1012.8 |
| 20260501174241 | 9 | 343 | 6.4 | 14.5 | 0.00 | 0.00 | 0.00 | 54 | 1012.8 |
| 20260501173734 | 9 | 321 | 6.4 | 14.5 | 0.00 | 0.00 | 0.00 | 55 | 1012.8 |
| 20260501173229 | 9 | 355 | 6.4 | 14.5 | 0.00 | 0.00 | 0.00 | 57 | 1012.6 |
| 20260501172943 | 10 | 25 | 6.4 | 14.5 | 0.00 | 0.00 | 0.00 | 57 | 1012.6 |
| 20260501172217 | 10 | 214 | 4.8 | 11.3 | 0.00 | 0.00 | 0.00 | 61 | 1012.6 |
| 20260501171712 | 9 | 346 | 6.4 | 14.5 | 0.00 | 0.00 | 0.00 | 60 | 1012.8 |
| 20260501171201 | 8 | 303 | 6.4 | 14.5 | 0.00 | 0.00 | 0.00 | 61 | 1012.8 |
| 20260501170657 | 9 | 38 | 6.4 | 14.5 | 0.00 | 0.00 | 0.00 | 58 | 1012.8 |
| 20260501170152 | 9 | 317 | 4.8 | 14.5 | 0.00 | 0.00 | 0.00 | 58 | 1012.6 |
| 20260501165640 | 9 | 44 | 4.8 | 14.5 | 0.00 | 0.00 | 0.00 | 61 | 1012.6 |
| 20260501165135 | 9 | 355 | 4.8 | 14.5 | 0.00 | 0.00 | 0.00 | 59 | 1012.6 |
| 20260501164633 | 9 | 16 | 6.4 | 11.3 | 0.00 | 0.00 | 0.00 | 58 | 1012.7 |
| 20260501164126 | 9 | 267 | 6.4 | 20.9 | 0.00 | 0.00 | 0.00 | 58 | 1012.7 |
| 20260501163620 | 9 | 50 | 6.4 | 20.9 | 0.00 | 0.00 | 0.00 | 58 | 1012.7 |
| 20260501163333 | 9 | 355 | 6.4 | 14.5 | 0.00 | 0.00 | 0.00 | 59 | 1012.8 |
| 20260501162607 | 8 | 248 | 6.4 | 12.9 | 0.00 | 0.00 | 0.00 | 60 | 1012.8 |
| 20260501162327 | 8 | 5 | 6.4 | 12.9 | 0.00 | 0.00 | 0.00 | 60 | 1012.8 |
| 20260501162048 | 8 | 253 | 6.4 | 12.9 | 0.00 | 0.00 | 0.00 | 59 | 1012.8 |
| 20260501161050 | 8 | 341 | 3.2 | 12.9 | 0.00 | 0.00 | 0.00 | 62 | 1012.8 |
| 20260501160544 | 8 | 28 | 3.2 | 11.3 | 0.00 | 0.00 | 0.00 | 63 | 1012.8 |
| 20260501160255 | 8 | 28 | 6.4 | 12.9 | 0.00 | 0.00 | 0.00 | 62 | 1012.8 |
| 20260501155528 | 8 | 5 | 6.4 | 16.1 | 0.00 | 0.00 | 0.00 | 60 | 1012.8 |